Date String (YYYY-MM-DD hh:mm:ss) UTC,Instrument flags,Ambient pressure (hPa),Sample flow (lpm),Bypass flow (lpm),Sample temperature (°C),Ambient temperature (°C),ASC tube jacket temperature (°C),LED temperature (°C),Box temperature (°C),Sample RH (%),Span deviation,Mass concentration (μg/m³),Mass concentration (μg/m³),Mass concentration (μg/m³)
DateTimeUTC,F1_M11,P_M11,Q1_M11,Q2_M11,T1_M11,T2_M11,T3_M11,T4_M11,T5_M11,U1_M11,ZSPAN_M11,X0_M11,X2_M11,X1_M11
2023-03-03 15:00:00,,0815.2,4.99,0.00,22.5,21.9,00.0,31.1,24.3,12.4,-001.4,0015.82,0008.35,0007.63
2023-03-03 15:01:00,,0815.2,5.01,0.00,22.5,21.7,00.0,31.1,24.3,12.5,-001.1,0015.71,0008.27,0007.56
2023-03-03 15:02:00,,0815.4,5.00,0.00,22.5,21.5,00.0,31.2,24.3,12.4,-001.0,0015.31,0008.18,0007.51
2023-03-03 15:03:00,,0815.4,4.99,0.00,22.5,21.3,00.0,31.2,24.2,12.1,-001.0,0014.83,0008.00,0007.39
2023-03-03 15:04:00,,0815.6,5.00,0.00,22.5,21.2,00.0,31.2,24.2,12.1,-001.3,0014.73,0007.91,0007.36
2023-03-03 15:05:00,,0815.4,5.01,0.00,22.5,21.1,00.0,31.2,24.2,11.7,-001.2,0013.80,0007.79,0007.27
2023-03-03 15:06:00,,0815.5,4.99,0.00,22.5,21.0,00.0,31.2,24.2,11.4,-001.0,0013.42,0007.64,0007.13
2023-03-03 15:07:00,,0815.3,5.00,0.00,22.5,21.0,00.0,31.2,24.2,11.3,-000.9,0012.83,0007.48,0006.99
2023-03-03 15:08:00,,0815.3,5.01,0.00,22.5,20.9,00.0,31.2,24.2,11.0,-000.7,0012.18,0007.21,0006.76
2023-03-03 15:09:00,,0815.2,4.97,0.00,22.4,20.9,00.0,31.2,24.1,11.0,-000.3,0010.98,0006.92,0006.51
2023-03-03 15:10:00,,0815.2,5.01,0.00,22.4,20.9,00.0,31.2,24.1,11.2,-000.3,0010.51,0006.70,0006.33
2023-03-03 15:11:00,,0815.2,5.04,0.00,22.4,20.8,00.0,31.2,24.1,11.4,-000.2,0011.15,0006.54,0006.18
2023-03-03 15:12:00,,0815.2,5.00,0.00,22.4,20.8,00.0,31.2,24.1,11.2,-000.3,0010.66,0006.24,0005.91
2023-03-03 15:13:00,,0815.2,5.00,0.00,22.4,20.8,00.0,31.2,24.1,12.4,-000.1,0010.45,0006.08,0005.76
2023-03-03 15:14:00,,0815.3,5.00,0.00,22.4,20.6,00.0,31.1,24.0,13.5,0000.3,0010.86,0006.13,0005.78
2023-03-03 15:15:00,,0815.2,4.99,0.00,22.3,20.5,00.0,31.1,23.9,13.9,0000.8,0010.96,0006.20,0005.83
2023-03-03 15:16:00,,0815.2,5.01,0.00,22.3,20.4,00.0,31.1,23.9,12.8,0000.2,0010.90,0006.17,0005.81
2023-03-03 15:17:00,,0815.2,5.00,0.00,22.3,20.4,00.0,31.1,23.9,11.3,0000.2,0010.58,0005.97,0005.65
2023-03-03 15:18:00,,0815.2,4.98,0.00,22.2,20.4,00.0,31.1,23.9,10.8,0000.2,0010.20,0005.72,0005.42
2023-03-03 15:19:00,,0815.2,4.99,0.00,22.2,20.4,00.0,31.1,23.9,10.7,0000.0,0009.97,0005.55,0005.25
2023-03-03 15:20:00,,0815.3,5.00,0.00,22.2,20.4,00.0,31.1,23.9,10.7,-000.2,0009.78,0005.41,0005.12
2023-03-03 15:21:00,,0815.2,5.01,0.00,22.2,20.7,00.0,31.0,23.9,10.9,0000.0,0009.87,0005.27,0004.97
2023-03-03 15:22:00,,0815.1,5.02,0.00,22.3,21.8,00.0,31.0,24.2,13.5,-000.0,0009.52,0005.41,0005.05
2023-03-03 15:23:00,,0815.2,5.00,0.00,22.4,22.9,00.0,31.1,24.4,13.3,0000.2,0010.09,0005.65,0005.26
2023-03-03 15:24:00,,0815.3,5.01,0.00,22.5,23.1,00.0,31.1,24.5,11.4,0000.0,0009.99,0005.45,0005.08
2023-03-03 15:25:00,,0815.5,4.96,0.00,22.6,22.6,00.0,31.1,24.5,10.8,-000.1,0009.84,0004.99,0004.66
2023-03-03 15:26:00,,0815.4,4.99,0.00,22.6,22.3,00.0,31.2,24.4,10.4,0000.2,0009.29,0004.45,0004.15
2023-03-03 15:27:00,,0815.2,5.00,0.00,22.6,22.0,00.0,31.2,24.4,10.5,0001.2,0008.73,0004.03,0003.75
2023-03-03 15:28:00,,0815.2,5.00,0.00,22.6,21.7,00.0,31.2,24.3,13.0,0000.5,0009.13,0004.24,0003.90
2023-03-03 15:29:00,,0815.3,5.00,0.00,22.6,21.5,00.0,31.2,24.2,14.1,-000.3,0011.10,0004.91,0004.51
2023-03-03 15:30:00,,0815.3,5.01,0.00,22.5,21.3,00.0,31.2,24.2,14.3,-000.5,0012.98,0005.62,0005.16
2023-03-03 15:31:00,,0815.3,5.00,0.00,22.5,21.1,00.0,31.2,24.2,13.9,-000.7,0014.37,0006.27,0005.73
2023-03-03 15:32:00,,0815.3,5.00,0.00,22.5,21.0,00.0,31.2,24.1,14.0,-000.8,0015.69,0006.89,0006.25
2023-03-03 15:33:00,,0815.3,4.99,0.00,22.5,20.9,00.0,31.2,24.1,14.1,-001.1,0016.95,0007.13,0006.51
2023-03-03 15:34:00,,0815.3,4.99,0.00,22.5,20.8,00.0,31.2,24.1,14.4,-001.4,0017.98,0007.40,0006.73
2023-03-03 15:35:00,,0815.2,5.00,0.00,22.4,20.7,00.0,31.2,24.0,14.6,-001.6,0019.14,0007.93,0007.21
2023-03-03 15:36:00,,0815.3,5.00,0.00,22.4,20.7,00.0,31.2,24.0,14.4,-001.7,0019.19,0008.58,0007.82
2023-03-03 15:37:00,,0815.3,5.01,0.00,22.4,20.6,00.0,31.2,23.9,14.6,-001.8,0019.91,0009.28,0008.49
2023-03-03 15:38:00,,0815.3,5.00,0.00,22.3,20.5,00.0,31.2,23.9,14.8,-001.8,0020.94,0010.03,0009.18
2023-03-03 15:39:00,,0815.3,5.00,0.00,22.3,20.5,00.0,31.2,23.9,14.8,-002.0,0021.44,0010.45,0009.59
2023-03-03 15:40:00,,0815.3,4.99,0.00,22.3,20.5,00.0,31.1,23.9,14.7,-002.2,0020.43,0010.51,0009.65
2023-03-03 15:41:00,,0815.2,5.00,0.00,22.3,20.6,00.0,31.1,23.9,15.2,-002.4,0019.67,0010.58,0009.75
2023-03-03 15:42:00,,0815.3,5.00,0.00,22.3,20.5,00.0,31.1,23.9,15.2,-002.8,0019.67,0010.74,0009.92
2023-03-03 15:43:00,,0815.3,4.99,0.00,22.2,20.5,00.0,31.1,23.8,15.6,-002.7,0019.47,0010.94,0010.17
2023-03-03 15:44:00,,0815.2,5.01,0.00,22.2,20.4,00.0,31.1,23.8,15.1,-002.8,0018.43,0011.13,0010.35
2023-03-03 15:45:00,,0815.3,5.01,0.00,22.2,20.4,00.0,31.1,23.8,14.4,-003.0,0017.66,0011.25,0010.49
2023-03-03 15:46:00,,0815.3,5.02,0.00,22.2,21.2,00.0,31.1,24.0,14.1,-003.1,0016.97,0011.34,0010.58
2023-03-03 15:47:00,,0815.3,5.00,0.00,22.3,22.4,00.0,31.1,24.2,14.1,-002.9,0017.11,0011.46,0010.71
2023-03-03 15:48:00,,0815.3,4.96,0.00,22.5,23.4,00.0,31.1,24.5,14.1,-003.0,0017.41,0011.58,0010.82
2023-03-03 15:49:00,,0815.4,5.00,0.00,22.5,23.0,00.0,31.1,24.5,14.0,-002.9,0017.48,0011.64,0010.91
2023-03-03 15:50:00,,0815.4,5.01,0.00,22.6,22.5,00.0,31.2,24.4,14.4,-002.8,0017.52,0011.68,0011.00
2023-03-03 15:51:00,,0815.3,5.00,0.00,22.6,22.1,00.0,31.2,24.3,14.1,-002.6,0017.56,0011.72,0011.06
2023-03-03 15:52:00,,0815.4,5.01,0.00,22.5,21.8,00.0,31.2,24.3,14.3,-002.4,0017.97,0011.79,0011.12
2023-03-03 15:53:00,,0815.3,5.01,0.00,22.5,21.6,00.0,31.2,24.2,14.3,-002.2,0017.49,0011.75,0011.11
2023-03-03 15:54:00,,0815.3,5.00,0.00,22.5,21.4,00.0,31.2,24.2,14.8,-002.0,0017.87,0011.76,0011.13
2023-03-03 15:55:00,,0815.4,5.00,0.00,22.5,21.2,00.0,31.2,24.1,14.9,-001.8,0018.03,0011.81,0011.19
2023-03-03 15:56:00,,0815.4,5.00,0.00,22.5,21.0,00.0,31.2,24.1,14.7,-001.6,0018.15,0011.87,0011.28
2023-03-03 15:57:00,,0815.3,5.00,0.00,22.5,20.9,00.0,31.2,24.1,14.7,-001.3,0018.18,0011.96,0011.39
2023-03-03 15:58:00,,0815.3,5.01,0.00,22.4,20.8,00.0,31.2,24.1,14.9,-001.3,0018.32,0012.07,0011.51
2023-03-03 15:59:00,,0815.3,5.00,0.00,22.4,20.7,00.0,31.2,24.0,14.9,-001.4,0018.50,0012.18,0011.62
